Location: Unspecified
(44.4377°N, 88.0525°W)
Time: 06:46:47
(UTC-05:00)

CZ-3 Stage 3 - Visible Passes

Search period start: 25 March 2017 00:00
Search period end: 04 April 2017 00:00
Orbit: 399 x 34802 km, 30.6° (Epoch: 23 March)

Date Brightness Start Highest point End Pass type
(mag) Time Alt. Az. Time Alt. Az. Time Alt. Az.
25 Mar 9.0 03:18:54 10° W 05:03:57 27° W 08:55:13 10° WNW visible
25 Mar 8.1 23:13:57 10° WSW 01:27:55 68° SW 08:24:43 10° SSW visible
26 Mar 7.4 19:35:11 10° SSW 20:37:40 51° ESE 04:53:40 10° SE visible
27 Mar 7.6 17:35:09 10° ENE 22:48:49 24° E 00:42:29 10° E visible
28 Mar 9.1 03:09:29 10° W 04:53:40 27° W 08:42:39 10° WNW visible
28 Mar 8.1 23:04:55 10° WSW 01:16:45 68° SW 08:14:47 10° SSW visible
29 Mar 7.4 19:26:03 10° SSW 20:18:21 51° ESE 04:44:20 10° SE visible
30 Mar 7.6 17:24:07 10° ENE 22:39:35 23° E 00:32:40 10° E visible
31 Mar 9.1 03:00:05 10° WNW 04:43:18 27° W 08:30:00 10° WNW visible
31 Mar 8.1 22:55:51 10° WSW 01:05:32 68° SW 08:04:47 10° SSW visible
01 Apr 7.4 19:16:55 10° SSW 20:04:20 51° ESE 04:34:58 10° SSE visible
02 Apr 7.5 17:13:20 10° ENE 22:30:21 23° E 00:22:48 10° ESE visible
03 Apr 9.1 02:50:39 10° WNW 04:32:54 27° W 08:17:18 10° WNW visible
